Tracking 34138 objects as of 15-May-2026
HD Live streaming from Space Station
objects crossing your sky now

STARLINK-36964

Track STARLINK-36964 now!
10-day predictions
STARLINK-36964 is classified as:


NORAD ID: 68184
Int'l Code: 2026-050T
Perigee: 456.1 km
Apogee: 456.4 km
Inclination: 53.2 °
Period: 93.6 minutes
Semi major axis: 6827 km
RCS: Unknown
Launch date: March 14, 2026
Source: United States (US)
Launch site: AIR FORCE EASTERN TEST RANGE (AFETR)
Your satellite tracking list
Your tracking list is empty




NASA's NSSDC Master Catalog

Two Line Element Set (TLE):
1 68184U 26050T   26134.88373558  .00021282  00000-0  55197-3 0  9998
2 68184  53.1576 319.5803 0000218  66.5704 293.5324 15.38978113 10818
Source of the keplerian elements: AFSPC